VLG83BQ LEBB-LIMC

Flight info

Callsign VLG83BQ
Flight time N/A
Altitude 30000
Route PPN DCT LATEK/N0454F360 DCT GONUP DCT TOU DCT GAI DCT MEN DCT NINUN DCT LATAM DCT ROMAM/N0459F350 DCT ETIDO DCT NEDRU DCT RILIP DCT EMMEF DCT LAPRI/N0456F360 DCT MOGBO/N0456F350 DCT KODOK/N0396F190 M730 TOP M135 ASTIG
Aircraft A320/M-SDE3FGHIRWY/LB1

Departure

Time 2026-05-06 19:24
Airport Bilbao Airport (LEBB)

Arrival

Time N/A
Airport Milan Malpensa International Airport (LIMC)
Time Latitude Longitude Altitude Speed Heading
2026-05-06 19:04 43.30427 -2.90632 124 ft 0 kts 26°
2026-05-06 19:16 43.30418 -2.90638 122 ft 3 kts 30°
2026-05-06 19:17 43.30402 -2.90654 125 ft 3 kts 42°
2026-05-06 19:17 43.30388 -2.90674 125 ft 3 kts 59°
2026-05-06 19:17 43.30380 -2.90698 123 ft 3 kts 82°
2026-05-06 19:17 43.30380 -2.90724 122 ft 3 kts 109°
2026-05-06 19:18 43.30383 -2.90734 122 ft 0 kts 116°
2026-05-06 19:20 43.30376 -2.90716 123 ft 5 kts 116°
2026-05-06 19:21 43.30353 -2.90651 126 ft 10 kts 116°
2026-05-06 19:21 43.30293 -2.90575 126 ft 14 kts 142°
2026-05-06 19:21 43.30195 -2.90548 127 ft 16 kts 202°
2026-05-06 19:21 43.30107 -2.90615 127 ft 14 kts 216°
2026-05-06 19:22 43.30091 -2.90632 127 ft 0 kts 220°
2026-05-06 19:22 43.30082 -2.90649 126 ft 6 kts 238°
2026-05-06 19:23 43.30075 -2.90743 128 ft 12 kts 272°
2026-05-06 19:23 43.30091 -2.90894 127 ft 20 kts 278°
2026-05-06 19:23 43.30136 -2.91108 126 ft 27 kts 296°
2026-05-06 19:23 43.30269 -2.91478 125 ft 74 kts 296°
2026-05-06 19:24 43.30596 -2.92382 126 ft 134 kts 297°
2026-05-06 19:24 43.31030 -2.93560 590 ft 139 kts 297°
2026-05-06 19:24 43.31485 -2.94791 1109 ft 151 kts 298°
2026-05-06 19:24 43.32003 -2.96110 1688 ft 168 kts 299°
2026-05-06 19:25 43.32638 -2.97614 2148 ft 195 kts 307°
2026-05-06 19:25 43.33648 -2.99011 1995 ft 203 kts 329°
2026-05-06 19:25 43.34877 -2.99819 1146 ft 198 kts 340°
2026-05-06 19:25 43.36200 -3.00271 295 ft 198 kts 351°
2026-05-06 19:26 43.36923 -3.00496 117 ft 5 kts 354°
2026-05-06 19:26 43.36924 -3.00496 117 ft 0 kts 355°